Location: Chagrin Falls Park
(41.4139°N, 81.3865°W)
Time: 03:13:58
(UTC+00:00)

STARLINK-2758 - Pass Details

Date: 31 July 2021
Orbit: 546 x 548 km, 53.1° (Epoch: 21 September)

Event Time Altitude Azimuth Distance (km) Brightness Sun altitude
Rises 01:04:04 0° 309° (NW) 2,725 9.5 -4.1°
Reaches altitude 10° 01:06:20 10° 312° (NW) 1,829 8.0 -4.5°
Maximum altitude 01:10:28 70° 36° (NE) 588 3.8 -5.1°
Drops below altitude 10° 01:14:36 10° 120° (ESE) 1,817 5.6 -5.8°
Enters shadow 01:15:08 - 121° (ESE) 2,031 5.8 -5.9°
